Location: Shenandoah County Park
(38.9356°N, 78.4524°W)
Time: 19:27:47
(UTC-04:00)

Explorer 11/Cluster Stage 4 - Pass Details

Date: 03 March 2024
Orbit: 465 x 1219 km, 28.8° (Epoch: 22 April)

Event Time Altitude Azimuth Distance (km) Brightness Sun altitude
Rises 22:52:25 0° 245° (WSW) 3,742 - -51.2°
Reaches altitude 10° 22:55:10 10° 237° (WSW) 2,891 - -51.5°
Maximum altitude 23:01:45 37° 173° (S) 1,721 - -52.3°
Drops below altitude 10° 23:08:58 10° 109° (ESE) 3,164 - -53.0°
Sets 23:12:07 0° 102° (ESE) 4,133 - -53.4°
